Williams, AZ

3:04 PM MST on January 19, 2017 (GMT -0700)
Grand Canyon National Park

Weather History for KGCN - February, 2014

Change the Weather History Date:

Wednesday, February 19, 2014

  Actual Average Record
Temperature  
Mean Temperature 39 °F -  
Max Temperature 60 °F 43 °F 66 °F (1981)
Min Temperature 18 °F 18 °F -5 °F (1998)
Degree Days  
Heating Degree Days 26    
Moisture  
Dew Point 11 °F    
Average Humidity 43    
Maximum Humidity 88    
Minimum Humidity 10    
Precipitation  
Precipitation 0.00 in - - ()
Sea Level Pressure  
Sea Level Pressure 29.89 in    
Wind  
Wind Speed 5 mph (WSW)    
Max Wind Speed 28 mph    
Max Gust Speed 43 mph    
Visibility 10 miles    
Events      
Averages and records for this station are not official NWS values.
T = Trace of Precipitation, MM = Missing Value Source: NWS Daily Summary

Daily Weather History Graph

Daily Weather History Graph

Search for Another Location

Airport or City:

Trip Planner

Search our weather history database for the weather conditions in past years. The results will help you decide how hot, cold, wet, or windy it might be!

Date:

Astronomy

Feb. 19, 2014 Rise Set
Actual Time 7:11 AM MST 6:14 PM MST
Civil Twilight 6:45 AM MST 6:40 PM MST
Nautical Twilight 6:15 AM MST 7:10 PM MST
Astronomical Twilight 5:45 AM MST 7:39 PM MST
Moon 11:00 PM MST 9:29 AM MST
Length of Visible Light 11h 55m
Length of Day
11h 03m
Waning Gibbous, 79% of the Moon is Illuminated
Feb 19
Waning Gibbous
Feb 22
Last Quarter
Mar 1
New
Mar 8
First Quarter
Mar 16
Full

Hourly Weather History & Observations

Time (MST) Temp. Windchill Dew Point Humidity Pressure Visibility Wind Dir Wind Speed Gust Speed Precip Events Conditions
12:54 AM 28.0 °F - 19.0 °F 69% 29.98 in 10.0 mi Calm Calm - N/A   Clear
1:54 AM 26.1 °F - 18.0 °F 71% 29.96 in 10.0 mi Calm Calm - N/A   Clear
2:54 AM 24.1 °F - 17.1 °F 75% 29.96 in 10.0 mi Calm Calm - N/A   Clear
3:54 AM 21.0 °F - 16.0 °F 81% 29.95 in 10.0 mi Calm Calm - N/A   Clear
4:54 AM 21.0 °F - 16.0 °F 81% 29.95 in 10.0 mi Calm Calm - N/A   Clear
5:54 AM 19.9 °F - 16.0 °F 85% 29.96 in 10.0 mi Calm Calm - N/A   Clear
6:54 AM 18.0 °F - 15.1 °F 88% 30.01 in 10.0 mi Calm Calm - N/A   Clear
7:54 AM 24.1 °F - 17.1 °F 75% 30.00 in 10.0 mi Calm Calm - N/A   Clear
8:54 AM 37.0 °F - 21.9 °F 54% 29.95 in 10.0 mi Calm Calm - N/A   Mostly Cloudy
9:54 AM 48.9 °F - 12.0 °F 23% 29.90 in 10.0 mi SSW 10.4 mph - N/A   Partly Cloudy
10:54 AM 52.0 °F - 15.1 °F 23% 29.87 in 10.0 mi SW 15.0 mph 24.2 mph N/A   Clear
11:54 AM 57.0 °F - 14.0 °F 18% 29.80 in 10.0 mi SW 19.6 mph - N/A   Scattered Clouds
12:54 PM 60.1 °F - 10.0 °F 14% 29.72 in 10.0 mi WSW 27.6 mph 41.4 mph N/A   Clear
1:54 PM 59.0 °F - 3.0 °F 11% 29.69 in 10.0 mi West 25.3 mph 42.6 mph N/A   Clear
2:54 PM 59.0 °F - 1.0 °F 10% 29.71 in 10.0 mi West 18.4 mph 38.0 mph N/A   Clear
3:54 PM - - - N/A% 29.84 in - North - - N/A   Unknown
4:54 PM - - - N/A% 29.87 in - North - - N/A   Unknown
5:54 PM - - - N/A% 29.90 in - North - - N/A   Unknown
6:54 PM 46.9 °F - -0.0 °F 14% 29.89 in 10.0 mi West 9.2 mph 18.4 mph N/A   Clear
7:54 PM 45.0 °F 42.6 °F 1.0 °F 16% 29.91 in 10.0 mi Variable 4.6 mph - N/A   Clear
8:54 PM 44.1 °F 39.5 °F 3.9 °F 19% 29.87 in 10.0 mi WNW 8.1 mph - N/A   Clear
9:54 PM 42.1 °F 37.7 °F 12.0 °F 29% 29.85 in 10.0 mi Variable 6.9 mph - N/A   Clear
10:54 PM 39.0 °F 34.8 °F 9.0 °F 29% 29.86 in 10.0 mi Variable 5.8 mph - N/A   Clear
11:54 PM 37.9 °F 31.5 °F 3.9 °F 24% 29.85 in 10.0 mi WNW 9.2 mph 21.9 mph N/A   Clear